Weather reports worldwide

Advertisment
Foggia Amendola, Italy (16261): temperature & dewpoint: 16.09.2018 23:00:00 - 22.09.2018 23:00:00 (CEST)Foggia Amendola, Italy (16261): wind speed: 16.09.2018 23:00:00 - 22.09.2018 23:00:00 (CEST)Foggia Amendola, Italy (16261): wind direction: 16.09.2018 23:00:00 - 22.09.2018 23:00:00 (CEST)Foggia Amendola, Italy (16261): reduced air pressure: 16.09.2018 23:00:00 - 22.09.2018 23:00:00 (CEST)Foggia Amendola, Italy (16261): visibility: 16.09.2018 23:00:00 - 22.09.2018 23:00:00 (CEST)Foggia Amendola, Italy (16261): sunshine duration: 16.09.2018 23:00:00 - 22.09.2018 23:00:00 (CEST)
Date & Time tt [°C] td [°C] ff [km/h] ff [kn] dd ppp [hPa] vv [km] sd [min]
22.09.2018 23:00:00 - - - - - - - -
22.09.2018 22:00:00 - - - - - - - -
22.09.2018 21:00:00 - - - - - - - -
22.09.2018 20:00:00 - - - - - - - -
22.09.2018 19:00:00 - - - - - - - -
22.09.2018 18:00:00 - - - - - - - -
22.09.2018 17:00:00 - - - - - - - -
22.09.2018 16:00:00 - - - - - - - -
22.09.2018 15:00:00 - - - - - - - -
22.09.2018 14:00:00 - - - - - - - -
22.09.2018 13:00:00 - - - - - - - -
22.09.2018 12:00:00 - - - - - - - -
22.09.2018 11:00:00 - - - - - - - -
22.09.2018 10:00:00 - - - - - - - -
22.09.2018 09:00:00 - - - - - - - -
22.09.2018 08:00:00 - - - - - - - -
22.09.2018 07:00:00 - - - - - - - -
22.09.2018 06:00:00 - - - - - - - -
22.09.2018 05:00:00 - - - - - - - -
22.09.2018 04:00:00 - - - - - - - -
22.09.2018 03:00:00 - - - - - - - -
22.09.2018 02:00:00 - - - - - - - -
22.09.2018 01:00:00 - - - - - - - -
22.09.2018 00:00:00 - - - - - - - -
21.09.2018 23:00:00 - - - - - - - -
21.09.2018 22:00:00 - - - - - - - -
21.09.2018 21:00:00 - - - - - - - -
21.09.2018 20:00:00 23,0 22,2 13 7 E 1015,7 10 0
21.09.2018 19:00:00 - - - - - - - -
21.09.2018 18:00:00 - - - - - - - -
21.09.2018 17:00:00 28,8 20,3 16 9 E 1015,6 10 60
21.09.2018 16:00:00 - - - - - - - -
21.09.2018 15:00:00 - - - - - - - -
21.09.2018 14:00:00 28,8 20,3 9 5 ESE 1016,2 10 60
21.09.2018 13:00:00 - - - - - - - -
21.09.2018 12:00:00 - - - - - - - -
21.09.2018 11:00:00 24,4 20,9 4 2 N 1016,7 10 60
21.09.2018 10:00:00 - - - - - - - -
21.09.2018 09:00:00 - - - - - - - -
21.09.2018 08:00:00 18,4 16,2 5 3 WSW 1016,1 10 0
21.09.2018 07:00:00 - - - - - - - -
21.09.2018 06:00:00 - - - - - - - -
21.09.2018 05:00:00 - - - - - - - -
21.09.2018 04:00:00 - - - - - - - -
21.09.2018 03:00:00 - - - - - - - -
21.09.2018 02:00:00 - - - - - - - -
21.09.2018 01:00:00 - - - - - - - -
21.09.2018 00:00:00 - - - - - - - -
20.09.2018 23:00:00 - - - - - - - -
20.09.2018 22:00:00 - - - - - - - -
20.09.2018 21:00:00 - - - - - - - -
20.09.2018 20:00:00 21,2 20,5 11 6 W 1017,3 12 0
20.09.2018 19:00:00 - - - - - - - -
20.09.2018 18:00:00 - - - - - - - -
20.09.2018 17:00:00 25,8 21,9 11 6 E 1016,5 8 24
20.09.2018 16:00:00 26,0 23,0 5 3 NNE - 8 -
20.09.2018 15:00:00 26,0 21,0 18 10 ENE - 3,0 -
20.09.2018 14:00:00 27,4 20,7 9 5 WNW 1017,7 12 36
20.09.2018 13:00:00 27,0 22,0 - - - - 10 -
20.09.2018 12:00:00 - - - - - - - -
20.09.2018 11:00:00 24,8 22,3 0 0 N 1018,5 7 0
20.09.2018 10:00:00 - - - - - - - -
20.09.2018 09:00:00 - - - - - - - -
20.09.2018 08:00:00 19,8 17,6 4 2 - 1018,2 0,9 0
20.09.2018 07:00:00 - - - - - - - -
20.09.2018 06:00:00 - - - - - - - -
20.09.2018 05:00:00 - - - - - - - -
20.09.2018 04:00:00 - - - - - - - -
20.09.2018 03:00:00 - - - - - - - -
20.09.2018 02:00:00 - - - - - - - -
20.09.2018 01:00:00 - - - - - - - -
20.09.2018 00:00:00 - - - - - - - -
19.09.2018 23:00:00 - - - - - - - -
19.09.2018 22:00:00 - - - - - - - -
19.09.2018 21:00:00 - - - - - - - -
19.09.2018 20:00:00 20,0 18,7 9 5 SW 1018,9 10 0
19.09.2018 19:00:00 23,0 22,0 11 6 SSW - 6 -
19.09.2018 18:00:00 23,0 23,0 4 2 E - 10 -
19.09.2018 17:00:00 25,2 22,3 18 10 ENE 1017,4 10 0
19.09.2018 16:00:00 27,0 21,0 16 9 E - 10 -
19.09.2018 15:00:00 28,0 19,0 16 9 E - 10 -
19.09.2018 14:00:00 28,8 19,2 13 7 E 1017,7 10 12
19.09.2018 13:00:00 29,0 19,0 5 3 - - 10 -
19.09.2018 12:00:00 28,0 20,0 4 2 NNE - 10 -
19.09.2018 11:00:00 25,8 21,7 4 2 N 1018,9 8 12
19.09.2018 10:00:00 24,0 20,0 9 5 W - 8 -
19.09.2018 09:00:00 22,0 21,0 4 2 - - 8 -
19.09.2018 08:00:00 15,0 14,4 5 3 N 1018,5 8 0
19.09.2018 07:00:00 15,0 14,0 8 4 NW - 8 -
19.09.2018 06:00:00 15,0 14,0 5 3 NW - 10 -
19.09.2018 05:00:00 - - - - - - - -
19.09.2018 04:00:00 - - - - - - - -
19.09.2018 03:00:00 - - - - - - - -
19.09.2018 02:00:00 - - - - - - - -
19.09.2018 01:00:00 - - - - - - - -
19.09.2018 00:00:00 - - - - - - - -
18.09.2018 23:00:00 - - - - - - - -
18.09.2018 22:00:00 23,0 22,0 5 3 ENE - 10 -
18.09.2018 21:00:00 24,0 23,0 5 3 E - 10 -
18.09.2018 20:00:00 24,0 21,3 8 4 ENE 1018,2 10 0
18.09.2018 19:00:00 - - - - - - - -
18.09.2018 18:00:00 - - - - - - - -
18.09.2018 17:00:00 26,0 20,3 22 12 E 1018,1 10 24
18.09.2018 16:00:00 - - - - - - - -
18.09.2018 15:00:00 - - - - - - - -
18.09.2018 14:00:00 30,0 13,7 11 6 E 1019,3 10 60
18.09.2018 13:00:00 - - - - - - - -
18.09.2018 12:00:00 - - - - - - - -
18.09.2018 11:00:00 26,0 21,4 8 4 SE 1020,0 8 12
18.09.2018 10:00:00 - - - - - - - -
18.09.2018 09:00:00 - - - - - - - -
18.09.2018 08:00:00 19,6 17,6 4 2 NNW 1019,5 6 0
18.09.2018 07:00:00 - - - - - - - -
18.09.2018 06:00:00 - - - - - - - -
18.09.2018 05:00:00 18,2 16,9 9 5 W 1018,9 12 0
18.09.2018 04:00:00 - - - - - - - -
18.09.2018 03:00:00 - - - - - - - -
18.09.2018 02:00:00 19,6 19,0 9 5 W 1019,0 12 0
18.09.2018 01:00:00 - - - - - - - -
18.09.2018 00:00:00 - - - - - - - -
17.09.2018 23:00:00 22,6 22,1 5 3 N 1019,6 12 0
17.09.2018 22:00:00 - - - - - - - -
17.09.2018 21:00:00 - - - - - - - -
17.09.2018 20:00:00 24,6 23,6 11 6 SE 1019,5 8 0
17.09.2018 19:00:00 - - - - - - - -
17.09.2018 18:00:00 - - - - - - - -
17.09.2018 17:00:00 28,4 20,4 26 14 E 1018,6 12 60
17.09.2018 16:00:00 - - - - - - - -
17.09.2018 15:00:00 - - - - - - - -
17.09.2018 14:00:00 31,6 15,1 13 7 E 1020,0 15 60
17.09.2018 13:00:00 - - - - - - - -
17.09.2018 12:00:00 - - - - - - - -
17.09.2018 11:00:00 27,6 18,0 4 2 SSW 1021,2 12 60
17.09.2018 10:00:00 - - - - - - - -
17.09.2018 09:00:00 - - - - - - - -
17.09.2018 08:00:00 17,8 16,3 5 3 W 1021,1 12 0
17.09.2018 07:00:00 - - - - - - - -
17.09.2018 06:00:00 - - - - - - - -
17.09.2018 05:00:00 - - - - - - - -
17.09.2018 04:00:00 - - - - - - - -
17.09.2018 03:00:00 - - - - - - - -
17.09.2018 02:00:00 - - - - - - - -
17.09.2018 01:00:00 - - - - - - - -
17.09.2018 00:00:00 - - - - - - - -
16.09.2018 23:00:00 - - - - - - - -

tt = temperature
td = dewpoint
ff = wind speed
dd = wind direction
ppp = reduced air pressure
vv = visibility
sd = sunshine duration

Next stations